| time (UTC) | temp C | wind direction | speed KPH | gust KPH | rain 1hr cm | rain 24hr cm | rain mn cm | humidity % | barometer mb |
| 20260503210057 | 24 | 326 | 1.6 | 16.1 | 0.00 | 0.00 | 0.00 | 44 | 1011.3 |
| 20260503204510 | 24 | 55 | 1.6 | 14.5 | 0.00 | 0.00 | 0.00 | 47 | 1011.5 |
| 20260503203021 | 23 | 16 | 1.6 | 14.5 | 0.00 | 0.00 | 0.00 | 47 | 1011.7 |
| 20260503201509 | 23 | 359 | 6.4 | 19.3 | 0.00 | 0.00 | 0.00 | 48 | 1011.9 |
| 20260503200056 | 23 | 346 | 3.2 | 14.5 | 0.00 | 0.00 | 0.00 | 50 | 1012.0 |
| 20260503194510 | 22 | 97 | 3.2 | 14.5 | 0.00 | 0.00 | 0.00 | 49 | 1012.3 |
| 20260503193035 | 22 | 19 | 4.8 | 14.5 | 0.00 | 0.00 | 0.00 | 52 | 1012.5 |
| 20260503191533 | 22 | 297 | 3.2 | 12.9 | 0.00 | 0.00 | 0.00 | 53 | 1012.6 |
| 20260503190049 | 21 | 42 | 6.4 | 16.1 | 0.00 | 0.00 | 0.00 | 53 | 1012.7 |
| 20260503184558 | 21 | 330 | 3.2 | 16.1 | 0.00 | 0.00 | 0.00 | 55 | 1012.8 |
| 20260503183051 | 21 | 56 | 3.2 | 12.9 | 0.00 | 0.00 | 0.00 | 56 | 1013.1 |
| 20260503181603 | 21 | 35 | 4.8 | 8.0 | 0.00 | 0.00 | 0.00 | 56 | 1013.1 |
| 20260503181501 | 21 | 29 | 3.2 | 8.0 | 0.00 | 0.00 | 0.00 | 55 | 1013.1 |
| 20260503180013 | 20 | 61 | 3.2 | 11.3 | 0.00 | 0.00 | 0.00 | 58 | 1013.1 |
| 20260503174526 | 20 | 328 | 3.2 | 9.7 | 0.00 | 0.00 | 0.00 | 57 | 1013.3 |
| 20260503173055 | 20 | 4 | 3.2 | 14.5 | 0.00 | 0.00 | 0.00 | 58 | 1013.3 |
| 20260503171507 | 20 | 18 | 4.8 | 17.7 | 0.00 | 0.00 | 0.00 | 58 | 1013.3 |
| 20260503081608 | 17 | 60 | 3.2 | 8.0 | 0.00 | 0.00 | 0.00 | 54 | 1013.9 |
| 20260503081502 | 17 | 60 | 4.8 | 8.0 | 0.00 | 0.00 | 0.00 | 54 | 1013.9 |
| 20260503071547 | 18 | 38 | 4.8 | 14.5 | 0.00 | 0.00 | 0.00 | 52 | 1013.8 |
| 20260503054525 | 17 | 16 | 1.6 | 12.9 | 0.00 | 0.00 | 0.00 | 54 | 1013.6 |
| 20260503053019 | 17 | 29 | 1.6 | 8.0 | 0.00 | 0.00 | 0.00 | 56 | 1013.6 |
| 20260503051527 | 17 | 24 | 0.0 | 6.4 | 0.00 | 0.00 | 0.00 | 60 | 1013.6 |
| 20260503050015 | 17 | 24 | 1.6 | 4.8 | 0.00 | 0.00 | 0.00 | 62 | 1013.4 |
| 20260503044556 | 17 | 25 | 0.0 | 3.2 | 0.00 | 0.00 | 0.00 | 63 | 1013.4 |
| 20260503044512 | 17 | 25 | 0.0 | 3.2 | 0.00 | 0.00 | 0.00 | 63 | 1013.4 |
| 20260503043019 | 17 | 24 | 0.0 | 3.2 | 0.00 | 0.00 | 0.00 | 64 | 1013.3 |
| 20260503041511 | 17 | 24 | 1.6 | 4.8 | 0.00 | 0.00 | 0.00 | 64 | 1013.1 |
| 20260503040022 | 17 | 24 | 1.6 | 8.0 | 0.00 | 0.00 | 0.00 | 63 | 1013.1 |
| 20260503034521 | 17 | 24 | 1.6 | 8.0 | 0.00 | 0.00 | 0.00 | 62 | 1012.7 |
| 20260503033011 | 18 | 21 | 0.0 | 4.8 | 0.00 | 0.00 | 0.00 | 61 | 1012.6 |
| 20260503031551 | 18 | 11 | 1.6 | 6.4 | 0.00 | 0.00 | 0.00 | 60 | 1012.5 |
| 20260503030042 | 18 | 80 | 3.2 | 14.5 | 0.00 | 0.00 | 0.00 | 58 | 1012.3 |
| 20260503024520 | 19 | 8 | 0.0 | 11.3 | 0.00 | 0.00 | 0.00 | 56 | 1012.3 |
| 20260503023032 | 19 | 29 | 3.2 | 17.7 | 0.00 | 0.00 | 0.00 | 56 | 1012.2 |
| 20260503021544 | 20 | 25 | 8.0 | 19.3 | 0.00 | 0.00 | 0.00 | 54 | 1012.1 |
| 20260503020032 | 21 | 62 | 1.6 | 16.1 | 0.00 | 0.00 | 0.00 | 51 | 1012.1 |
| 20260503014550 | 21 | 40 | 4.8 | 17.7 | 0.00 | 0.00 | 0.00 | 51 | 1012.1 |
| 20260503013031 | 21 | 10 | 4.8 | 19.3 | 0.00 | 0.00 | 0.00 | 50 | 1012.2 |
| 20260503011514 | 21 | 354 | 3.2 | 17.7 | 0.00 | 0.00 | 0.00 | 51 | 1012.3 |
| 20260503010025 | 21 | 59 | 3.2 | 17.7 | 0.00 | 0.00 | 0.00 | 50 | 1012.3 |
| 20260503004532 | 21 | 349 | 8.0 | 22.5 | 0.00 | 0.00 | 0.00 | 50 | 1012.5 |
| 20260503003050 | 21 | 25 | 3.2 | 19.3 | 0.00 | 0.00 | 0.00 | 50 | 1012.5 |
| 20260503001609 | 21 | 54 | 8.0 | 24.1 | 0.00 | 0.00 | 0.00 | 50 | 1012.4 |
| 20260503000104 | 21 | 339 | 6.4 | 22.5 | 0.00 | 0.00 | 0.00 | 50 | 1012.6 |
| 20260503000006 | 21 | 316 | 6.4 | 22.5 | 0.00 | 0.00 | 0.00 | 50 | 1012.6 |
| 20260502234553 | 21 | 301 | 6.4 | 20.9 | 0.00 | 0.00 | 0.00 | 48 | 1012.7 |
| 20260502233019 | 22 | 239 | 8.0 | 20.9 | 0.00 | 0.00 | 0.00 | 48 | 1013.0 |
| 20260502231602 | 22 | 8 | 4.8 | 16.1 | 0.00 | 0.00 | 0.00 | 48 | 1013.3 |
| 20260502230017 | 21 | 71 | 8.0 | 25.7 | 0.00 | 0.00 | 0.00 | 48 | 1013.5 |
| 20260502224526 | 21 | 32 | 6.4 | 19.3 | 0.00 | 0.00 | 0.00 | 51 | 1013.7 |
| 20260502223033 | 21 | 359 | 3.2 | 19.3 | 0.00 | 0.00 | 0.00 | 52 | 1013.9 |
| 20260502221546 | 21 | 16 | 4.8 | 17.7 | 0.00 | 0.00 | 0.00 | 54 | 1014.1 |
| 20260502220031 | 21 | 54 | 3.2 | 12.9 | 0.00 | 0.00 | 0.00 | 56 | 1014.3 |
| 20260502214526 | 21 | 287 | 4.8 | 9.7 | 0.00 | 0.00 | 0.00 | 56 | 1014.4 |
| 20260502213039 | 21 | 331 | 3.2 | 20.9 | 0.00 | 0.00 | 0.00 | 55 | 1014.5 |
| 20260502211542 | 21 | 333 | 4.8 | 12.9 | 0.00 | 0.00 | 0.00 | 58 | 1014.6 |